Location: Burgberg
(50.1428°N, 11.0671°E)
Time: 08:42:44
(UTC+00:00)

FALCON 9 DEB - Visible Passes

Search period start: 06 June 2020 00:00
Search period end: 16 June 2020 00:00
Orbit: 428 x 442 km, 53.0° (Epoch: 05 June)

Date Brightness Start Highest point End Pass type
(mag) Time Alt. Az. Time Alt. Az. Time Alt. Az.
06 Jun 3.2 01:19:49 10° WNW 01:23:17 78° NNE 01:26:45 10° ESE visible
06 Jun 3.0 21:23:04 10° WSW 21:26:29 69° SSE 21:29:54 10° ENE visible
06 Jun 3.9 23:00:16 10° W 23:03:38 52° N 23:07:02 10° ENE visible
07 Jun 3.5 00:37:31 10° WNW 00:40:57 66° NNE 00:44:24 10° E visible
07 Jun 3.6 02:14:40 10° WNW 02:17:54 37° SW 02:21:07 10° SE visible
07 Jun 3.2 20:40:53 10° SW 20:44:13 52° SSE 20:47:34 10° ENE visible
07 Jun 3.8 22:17:52 10° W 22:21:16 57° N 22:24:41 10° ENE visible
07 Jun 3.8 23:55:12 10° WNW 23:58:36 58° N 00:02:01 10° E visible
08 Jun 3.2 01:32:18 10° WNW 01:35:39 50° SSW 01:39:01 10° SE visible
08 Jun 3.5 21:35:30 10° W 21:38:55 65° NNW 21:42:21 10° ENE visible
08 Jun 3.9 23:12:51 10° WNW 23:16:14 53° N 23:19:38 10° E visible
09 Jun 3.0 00:49:58 10° WNW 00:53:23 67° SSW 00:56:49 10° ESE visible
09 Jun 3.3 20:53:09 10° WSW 20:56:35 77° NNW 21:00:02 10° ENE visible
09 Jun 4.0 22:30:29 10° WNW 22:33:52 50° N 22:37:14 10° E visible
10 Jun 3.0 00:07:38 10° WNW 00:11:05 86° SSW 00:14:33 10° ESE visible
10 Jun 4.4 01:45:07 10° W 01:47:46 21° SW 01:50:24 10° S visible
10 Jun 3.1 20:10:49 10° WSW 20:14:15 86° SSE 20:17:42 10° ENE visible
10 Jun 4.0 21:48:07 10° W 21:51:29 50° N 21:54:51 10° ENE visible
10 Jun 3.2 23:25:19 10° WNW 23:28:46 77° NNE 23:32:13 10° ESE visible
11 Jun 4.0 01:02:35 10° W 01:05:35 28° SW 01:07:47 15° SSE visible
11 Jun 4.0 21:05:44 10° W 21:09:06 53° N 21:12:29 10° ENE visible
11 Jun 3.5 22:42:59 10° WNW 22:46:25 65° NNE 22:49:51 10° E visible
12 Jun 3.6 00:20:08 10° WNW 00:23:22 38° SSW 00:24:04 33° S visible
12 Jun 3.8 20:23:20 10° W 20:26:43 57° N 20:30:08 10° ENE visible
12 Jun 3.7 22:00:39 10° WNW 22:04:03 57° N 22:07:27 10° E visible
12 Jun 3.2 23:37:45 10° WNW 23:41:07 51° SSW 23:41:54 41° SSE visible
13 Jun 3.9 21:18:18 10° WNW 21:21:41 52° N 21:25:03 10° E visible
13 Jun 3.0 22:55:24 10° WNW 22:58:49 69° SSW 23:00:10 34° SE visible
14 Jun 5.6 00:33:16 10° W 00:33:23 10° W 00:33:23 10° W visible
14 Jun 4.0 20:35:55 10° WNW 20:39:17 50° N 20:42:39 10° E visible
14 Jun 3.0 22:13:03 10° WNW 22:16:31 87° SSW 22:18:40 21° ESE visible
14 Jun 5.0 23:50:32 10° W 23:51:54 17° WSW 23:51:54 17° WSW visible
15 Jun 3.2 21:30:43 10° WNW 21:34:10 76° NNE 21:37:18 12° ESE visible
15 Jun 4.3 23:07:59 10° W 23:10:33 28° SW 23:10:33 28° SW visible
